Torna al catalogo

SL-8 R/B

AttivoPO
NORAD 9638·ROCKET BODY·🇷🇺 Russia

Lanciato Dec 28, 1976 da Plesetsk Cosmodrome

Loading…

Prossimi Passaggi (prossime 24 ore)

TLE

AggiornatoSource: Space-Track

Epoca: Sep 14, 2026, 08:05 UTC

1 09638U 76128B   26257.33716831  .00000036  00000-0  20793-4 0  9998
2 09638  82.9371  46.3289 0030986 189.5458 170.5116 13.78577280499423

Traccia SL-8 R/B in tempo reale con AllMySat

Download on the App Store